[[{"header":{"parameterUnit":"m.s-1","parameterCategory":2,"la1":30.2991,"la2":30.254,"lo1":-89.0895,"lo2":-89.0444,"dy":0.0017,"dx":0.0017,"nx":28,"ny":28,"refTime":"2025-09-01T03:00:00:Z","depth":"0","parameterNumber":2,"parameterNumberName":"U-component_of_CURRENTS"},"data":[0,0,0,0,0,0,0,0,0,0,0,0,0,0,0,0,0,0,0,0,0,0,0,0,0,0,0,0,0,0,0,0,0,0,0,0,0,0,0,0,0,0,0,0,0,0,0,0,0,0,0,0,0,0,0,0,0,0,-0.3247,-0.3249,0,-0.3334,-0.3334,-0.3334,-0.3277,-0.3275,-0.3273,-0.3271,-0.3226,-0.3226,-0.3227,0,0,0,0,0,0,0,0,0,0,0,0,0,-0.2996,-0.3,-0.3247,-0.3249,-0.3251,-0.3334,-0.3334,-0.3334,-0.3277,-0.3275,-0.3273,-0.327,-0.3226,-0.3226,-0.3227,0,0,0,0,0,0,0,0,0,0,0,0,0,-0.3087,-0.3002,-0.3247,-0.3239,-0.324,-0.3334,-0.3334,-0.3335,-0.3277,-0.3275,-0.3272,-0.3269,-0.3225,-0.3226,-0.3227,-0.3284,0,0,-0.3229,-0.3229,0,0,0,0,0,0,0,0,-0.3082,-0.3095,-0.3238,-0.324,-0.3241,-0.33,-0.323,-0.3315,-0.3278,-0.3253,-0.3271,-0.3268,-0.3246,-0.3245,-0.3256,-0.3282,-0.328,-0.3229,-0.3229,-0.323,-0.323,0,0,0,0,0,0,0,-0.3076,-0.3091,-0.3272,-0.3241,-0.3243,-0.322,-0.3229,-0.3245,-0.3254,-0.3255,-0.3253,-0.3279,-0.3244,-0.3256,-0.3254,-0.328,-0.3229,-0.3229,-0.323,-0.323,-0.3325,-0.3327,0,0,0,0,0,0,-0.309,-0.3086,-0.3269,-0.3275,-0.3164,-0.3228,-0.3237,-0.3276,-0.3257,-0.3255,-0.3281,-0.3276,-0.3256,-0.3254,-0.3252,-0.3266,-0.323,-0.323,-0.3231,-0.3323,-0.3326,-0.3328,0,0,0,0,0,0,-0.3085,-0.3106,-0.3266,-0.3188,-0.3208,-0.3236,-0.3279,-0.3279,-0.3281,-0.328,-0.3273,-0.3282,-0.3253,-0.3251,-0.3265,-0.3265,-0.323,-0.3231,-0.3321,-0.3324,-0.3327,-0.3327,0,0,0,0,0,0,-0.3077,-0.3104,-0.3108,-0.3191,-0.3214,-0.3327,-0.3283,-0.3283,-0.3306,-0.33,-0.3279,-0.3273,-0.3251,-0.3264,-0.3266,-0.3265,-0.3232,-0.3318,-0.3322,-0.3326,-0.3324,-0.333,-0.3335,0,0,0,0,0,-0.3068,-0.3091,-0.3108,-0.3129,-0.3229,-0.333,-0.3339,-0.3341,-0.3309,-0.3327,-0.3306,-0.3273,-0.329,-0.3267,-0.3268,-0.3268,-0.3316,-0.3321,-0.3326,-0.3322,-0.3329,-0.3334,0,0,0,0,0,0,-0.2978,-0.3091,-0.311,-0.3164,-0.3247,-0.3324,-0.333,-0.3349,-0.335,-0.3327,-0.3302,-0.3297,-0.3313,-0.3308,-0.3283,-0.3314,-0.3298,-0.3303,-0.3295,-0.3301,-0.3306,-0.3213,-0.3232,0,0,0,0,0,-0.297,-0.3008,-0.313,-0.3166,-0.3211,-0.3272,-0.3301,-0.3328,-0.3359,-0.3355,-0.3349,-0.334,-0.3342,-0.3332,-0.3346,-0.3362,-0.3309,-0.3367,-0.3372,-0.3376,-0.3306,-0.3242,-0.3232,-0.3344,-0.3344,-0.3344,0,0,-0.2944,-0.3008,-0.3029,-0.3148,-0.3198,-0.3248,-0.3279,-0.3345,-0.3356,-0.3352,-0.3342,-0.3366,-0.3357,-0.3372,-0.3377,-0.3356,-0.3334,-0.3382,-0.3385,-0.3311,-0.3246,-0.3234,-0.3223,-0.3347,-0.3347,-0.3346,0,0,-0.2914,-0.2979,-0.3001,-0.3073,-0.3177,-0.3228,-0.3252,-0.3351,-0.3359,-0.3404,-0.3384,-0.3392,-0.3427,-0.3393,-0.3382,-0.3427,-0.3375,-0.3466,-0.3391,-0.3333,-0.332,-0.3309,-0.3281,-0.3267,-0.3452,-0.3452,-0.3452,0,-0.2872,-0.2923,-0.3023,-0.3066,-0.3099,-0.3214,-0.3241,-0.3288,-0.3369,-0.3359,-0.3399,-0.3401,-0.3415,-0.336,-0.338,-0.3425,-0.3397,-0.3363,-0.3331,-0.3318,-0.3305,-0.3279,-0.3263,-0.3452,-0.3452,-0.3452,-0.3452,0,-0.2869,-0.29,-0.2925,-0.3002,-0.3057,-0.3114,-0.3212,-0.3249,-0.329,-0.3324,-0.333,-0.3365,-0.3342,-0.3383,-0.3389,-0.332,-0.3335,-0.3354,-0.3295,-0.3292,-0.3269,-0.3251,-0.3453,-0.3453,-0.3453,-0.3453,0,0,-0.2797,-0.2898,-0.2901,-0.2917,-0.3028,-0.3083,-0.3101,-0.3152,-0.3146,-0.3221,-0.3188,-0.3217,-0.3239,-0.3227,-0.3257,-0.3207,-0.3147,-0.3237,-0.3234,-0.3172,-0.3031,-0.3001,-0.298,-0.3159,-0.3155,-0.3152,-0.3068,0,-0.2756,-0.2795,-0.2854,-0.2874,-0.2907,-0.299,-0.3002,-0.3054,-0.3108,-0.3122,-0.3135,-0.3146,-0.3183,-0.3195,-0.3143,-0.3165,-0.3092,-0.3167,-0.3071,-0.3068,-0.3008,-0.2954,-0.2861,-0.2772,-0.3051,-0.3048,-0.3046,0,-0.2723,-0.2755,-0.2762,-0.2813,-0.2835,-0.2854,-0.2882,-0.2917,-0.295,-0.2991,-0.2974,-0.3021,-0.2973,-0.3027,-0.2946,-0.2999,-0.2977,-0.2981,-0.2979,-0.2909,-0.3001,-0.2813,-0.273,-0.2718,-0.3019,-0.3021,-0.3023,0,-0.2624,-0.2682,-0.2672,-0.2697,-0.2781,-0.2771,-0.2807,-0.2854,-0.2881,-0.2894,-0.2922,-0.288,-0.2895,-0.2835,-0.287,-0.2899,-0.2791,-0.2842,-0.277,-0.2771,-0.2641,-0.2636,-0.248,-0.2705,-0.2705,-0.2705,-0.2705,0,-0.2557,-0.2551,-0.2627,-0.2632,-0.2626,-0.2702,-0.2698,-0.2733,-0.2779,-0.2793,-0.284,-0.2844,-0.2844,-0.2823,-0.2813,-0.2741,-0.2737,-0.2697,-0.2713,-0.2652,-0.2649,-0.2593,-0.2624,-0.2702,-0.2703,-0.2703,-0.2704,0,-0.2447,-0.2497,-0.2502,-0.2567,-0.2582,-0.2578,-0.2649,-0.2656,-0.2717,-0.2731,-0.2735,-0.2798,-0.2772,-0.2769,-0.271,-0.268,-0.2566,-0.2582,-0.2529,-0.2537,-0.2447,-0.2484,-0.2284,-0.2219,-0.246,-0.2458,-0.2457,0,-0.239,-0.2382,-0.244,-0.2442,-0.2466,-0.2487,-0.2505,-0.2595,-0.2617,-0.2704,-0.2698,-0.2709,-0.2698,-0.2623,-0.2564,-0.2483,-0.2481,-0.2346,-0.2349,-0.2364,-0.2417,-0.2441,-0.2403,-0.2214,-0.2211,-0.2208,-0.2206,0,-0.2278,-0.23,-0.231,-0.2325,-0.2338,-0.2362,-0.2399,-0.2418,-0.252,-0.2548,-0.2581,-0.2582,-0.2552,-0.2449,-0.237,-0.2312,-0.2287,-0.2286,-0.2285,-0.2156,-0.2179,-0.2153,-0.2397,-0.2181,-0.2184,-0.2185,-0.2187,-0.2188,-0.2178,-0.2164,-0.2184,-0.2181,-0.2202,-0.2207,-0.2185,-0.2253,-0.2274,-0.23,-0.24,-0.2381,-0.2348,-0.223,-0.2173,-0.2052,-0.2102,-0.1991,-0.2023,-0.2038,-0.1972,-0.217,-0.1991,-0.1993,-0.1994,-0.1995,-0.1996,0,-0.2045,-0.2043,-0.204,-0.2038,-0.2005,-0.2065,-0.2085,-0.2048,-0.2027,-0.211,-0.212,-0.2129,-0.2025,-0.201,-0.1912,-0.1822,-0.1774,-0.178,-0.1778,-0.1742,-0.1882,-0.187,-0.1675,-0.1675,-0.1675,-0.1675,-0.1675,-0.1675,-0.1972,-0.192,-0.1924,-0.1829,-0.1825,-0.1743,-0.1721,-0.1698,-0.1725,-0.1724,-0.1779,-0.187,-0.1876,-0.1946,-0.1817,-0.1722,-0.1674,-0.1616,-0.1643,-0.1765,-0.1788,-0.181,-0.1802,-0.1595,-0.1595,-0.1433,-0.1432,-0.1431]},{"header":{"parameterUnit":"m.s-1","parameterCategory":2,"la1":30.2991,"la2":30.254,"lo1":-89.0895,"lo2":-89.0444,"dy":0.0017,"dx":0.0017,"nx":28,"ny":28,"refTime":"2025-09-01T03:00:00:Z","depth":"0","parameterNumber":3,"parameterNumberName":"V-component_of_CURRENTS"},"data":[0,0,0,0,0,0,0,0,0,0,0,0,0,0,0,0,0,0,0,0,0,0,0,0,0,0,0,0,0,0,0,0,0,0,0,0,0,0,0,0,0,0,0,0,0,0,0,0,0,0,0,0,0,0,0,0,0,0,-0.0319,-0.0318,0,-0.0224,-0.0222,-0.0221,-0.0162,-0.0162,-0.0161,-0.0161,-0.0008,-0.0004,-0.0,0,0,0,0,0,0,0,0,0,0,0,0,0,-0.0393,-0.0392,-0.0319,-0.0318,-0.0317,-0.0224,-0.0222,-0.0221,-0.0162,-0.0162,-0.0161,-0.0161,-0.0009,-0.0005,0.0,0,0,0,0,0,0,0,0,0,0,0,0,0,-0.0334,-0.0392,-0.0319,-0.0278,-0.0273,-0.0224,-0.0222,-0.0221,-0.0162,-0.0162,-0.0161,-0.0161,-0.0011,-0.0005,0.0001,0.0032,0,0,0.0019,0.0021,0,0,0,0,0,0,0,0,-0.0338,-0.0331,-0.0285,-0.028,-0.0275,-0.0206,-0.0192,-0.0134,-0.0162,-0.0202,-0.0161,-0.0161,-0.007,-0.0059,-0.004,0.0039,0.0046,0.0019,0.0023,0.0025,0.0027,0,0,0,0,0,0,0,-0.0342,-0.0335,-0.028,-0.0284,-0.0278,-0.0244,-0.0236,-0.0181,-0.0136,-0.0199,-0.0195,-0.0187,-0.0067,-0.0046,-0.0036,0.0048,0.0019,0.0024,0.0028,0.003,0.0189,0.019,0,0,0,0,0,0,-0.036,-0.0339,-0.0283,-0.0277,-0.0308,-0.0244,-0.0234,-0.0227,-0.0138,-0.0125,-0.0187,-0.0184,-0.0056,-0.0043,-0.003,0.0017,0.0025,0.0031,0.0034,0.0188,0.0189,0.019,0,0,0,0,0,0,-0.0362,-0.0356,-0.0287,-0.0307,-0.0296,-0.0243,-0.0235,-0.0225,-0.0207,-0.013,-0.0116,-0.018,-0.0056,-0.0039,0.0021,0.0023,0.0033,0.0039,0.0187,0.0189,0.0189,0.0109,0,0,0,0,0,0,-0.0365,-0.0358,-0.0364,-0.0308,-0.0296,-0.0265,-0.0235,-0.0224,-0.0204,-0.0199,-0.0119,-0.0105,-0.0054,0.0011,0.0026,0.0031,0.0043,0.0187,0.0188,0.0189,0.0111,0.0107,0.0104,0,0,0,0,0,-0.0368,-0.0381,-0.0365,-0.0358,-0.0304,-0.0266,-0.0256,-0.0216,-0.0204,-0.0198,-0.014,-0.0107,0.003,0.0017,0.0034,0.0041,0.0186,0.0188,0.0189,0.0112,0.0108,0.0104,0,0,0,0,0,0,-0.042,-0.0375,-0.0356,-0.0355,-0.0316,-0.0256,-0.0255,-0.0223,-0.0174,-0.0172,-0.0098,-0.0079,-0.0025,0.0021,0.0004,0.0093,0.0114,0.0119,0.005,0.0046,0.0043,0.0011,0.0048,0,0,0,0,0,-0.0434,-0.0432,-0.0378,-0.0379,-0.0365,-0.0311,-0.0293,-0.0263,-0.0211,-0.019,-0.0131,-0.0065,-0.0004,0.0029,0.009,0.0135,0.0167,0.0153,0.015,0.0146,0.0134,0.017,0.0168,0.0195,0.0195,0.0195,0,0,-0.0457,-0.0432,-0.0431,-0.039,-0.036,-0.0346,-0.0299,-0.0279,-0.026,-0.018,-0.014,-0.0075,0.0007,0.006,0.0088,0.0097,0.016,0.0148,0.0144,0.0134,0.0171,0.0168,0.0166,0.0196,0.0196,0.0196,0,0,-0.0503,-0.0477,-0.0491,-0.046,-0.042,-0.0381,-0.0379,-0.0318,-0.0286,-0.0236,-0.0172,-0.011,-0.0018,0.0041,0.0082,0.0098,0.0141,0.0121,0.0077,0.0112,0.0109,0.0107,0.0154,0.0157,0.0118,0.0117,0.0117,0,-0.0533,-0.0535,-0.0489,-0.0488,-0.047,-0.0403,-0.0405,-0.0363,-0.0287,-0.0259,-0.0235,-0.0098,-0.0028,0.0038,0.0047,0.0088,0.0115,0.0081,0.0103,0.0102,0.0101,0.015,0.0154,0.0114,0.0114,0.0115,0.0115,0,-0.0582,-0.0579,-0.0585,-0.056,-0.0534,-0.0524,-0.0459,-0.0426,-0.0378,-0.0327,-0.0252,-0.0157,-0.0077,-0.004,0.001,0.0047,0.0072,0.0091,0.0102,0.0093,0.0147,0.0152,0.0108,0.011,0.0111,0.0112,0,0,-0.065,-0.0626,-0.0626,-0.0623,-0.0568,-0.0551,-0.0521,-0.0467,-0.0447,-0.0367,-0.033,-0.0219,-0.0167,-0.0117,-0.0042,-0.0008,0.0024,0.003,0.0034,0.0057,0.0103,0.0157,0.0169,0.0036,0.0037,0.0037,0.0146,0,-0.0698,-0.0722,-0.0687,-0.0695,-0.0696,-0.0625,-0.0601,-0.0543,-0.0477,-0.0422,-0.0323,-0.0256,-0.0195,-0.0154,-0.0112,-0.0002,0.0032,-0.0008,0.0127,0.0131,0.0163,0.0175,0.0206,0.0308,0.0152,0.0153,0.0154,0,-0.0748,-0.0756,-0.0781,-0.0755,-0.0749,-0.0741,-0.0685,-0.0653,-0.056,-0.0507,-0.0431,-0.0346,-0.0255,-0.0214,-0.0067,-0.0098,-0.0012,0.0062,0.0068,0.0145,0.0195,0.0294,0.0325,0.0465,0.0162,0.0162,0.0161,0,-0.0812,-0.0813,-0.0837,-0.0828,-0.0793,-0.0787,-0.0762,-0.0684,-0.0653,-0.056,-0.0523,-0.041,-0.034,-0.0233,-0.006,-0.0071,0.0095,0.0106,0.0233,0.0239,0.0307,0.0318,0.047,0.0184,0.0183,0.0183,0.0183,0,-0.0866,-0.088,-0.0873,-0.0884,-0.0907,-0.0853,-0.0851,-0.0804,-0.0734,-0.0699,-0.0576,-0.0515,-0.0348,-0.0218,-0.0083,0.0105,0.0082,0.0227,0.0268,0.0284,0.0291,0.045,0.05,0.0187,0.0186,0.0185,0.0185,0,-0.0922,-0.0918,-0.0945,-0.0938,-0.0938,-0.0952,-0.0922,-0.0912,-0.0836,-0.0786,-0.0758,-0.0594,-0.0416,-0.0231,-0.003,0.0087,0.035,0.0324,0.0341,0.0381,0.0614,0.0657,0.0845,0.092,0.0471,0.0473,0.0475,0,-0.095,-0.0974,-0.1,-0.1024,-0.1024,-0.1035,-0.1038,-0.0975,-0.0954,-0.0823,-0.0801,-0.0619,-0.0465,-0.0135,0.0102,0.0351,0.045,0.0514,0.0498,0.0638,0.0716,0.0745,0.0796,0.0567,0.0569,0.0571,0.0573,0,-0.0998,-0.1011,-0.1036,-0.11,-0.1123,-0.1141,-0.1136,-0.1137,-0.1048,-0.0977,-0.0843,-0.0708,-0.0369,-0.0059,0.0268,0.0418,0.0618,0.0558,0.0699,0.0799,0.0846,0.0935,0.0494,0.0589,0.0588,0.0586,0.0585,0.0585,-0.1026,-0.1066,-0.1109,-0.1162,-0.1198,-0.1229,-0.1236,-0.1208,-0.1161,-0.103,-0.0891,-0.065,-0.0203,0.0275,0.0449,0.0816,0.0772,0.0917,0.0959,0.0977,0.1047,0.0648,0.0788,0.0787,0.0787,0.0787,0.0786,0,-0.1054,-0.1101,-0.1165,-0.1226,-0.1275,-0.1274,-0.128,-0.1255,-0.1194,-0.1039,-0.0872,-0.0366,0.008,0.0488,0.1006,0.1203,0.1235,0.13,0.1348,0.138,0.1033,0.1035,0.1241,0.1241,0.124,0.124,0.124,0.124,-0.1069,-0.1137,-0.1176,-0.1266,-0.1309,-0.1337,-0.1335,-0.1277,-0.1163,-0.0888,-0.0601,-0.0368,0.023,0.1062,0.1538,0.1581,0.1727,0.1722,0.1799,0.1559,0.1526,0.1495,0.1511,0.1813,0.1813,0.2133,0.2137,0.2139]}],[{"header":{"parameterUnit":"m.s-1","parameterCategory":2,"la1":30.2991,"la2":30.254,"lo1":-89.0895,"lo2":-89.0444,"dy":0.0017,"dx":0.0017,"nx":28,"ny":28,"refTime":"2025-09-01T03:00:00:Z","depth":"2","parameterNumber":2,"parameterNumberName":"U-component_of_CURRENTS"},"data":[0,0,0,0,0,0,0,0,0,0,0,0,0,0,0,0,0,0,0,0,0,0,0,0,0,0,0,0,0,0,0,0,0,0,0,0,0,0,0,0,0,0,0,0,0,0,0,0,0,0,0,0,0,0,0,0,0,0,-0.2656,-0.2657,0,-0.2741,-0.2742,-0.2743,-0.2736,-0.2734,-0.2733,-0.2732,-0.2693,-0.2693,-0.2693,0,0,0,0,0,0,0,0,0,0,0,0,0,-0.2551,-0.2553,-0.2656,-0.2657,-0.2658,-0.2741,-0.2742,-0.2744,-0.2736,-0.2734,-0.2733,-0.2731,-0.2693,-0.2693,-0.2693,0,0,0,0,0,0,0,0,0,0,0,0,0,-0.2613,-0.2554,-0.2656,-0.2664,-0.2665,-0.2741,-0.2742,-0.2744,-0.2736,-0.2734,-0.2732,-0.273,-0.2693,-0.2693,-0.2693,-0.2736,0,0,-0.2694,-0.2694,0,0,0,0,0,0,0,0,-0.261,-0.2617,-0.2661,-0.2663,-0.2665,-0.2725,-0.2691,-0.2735,-0.2737,-0.271,-0.2732,-0.2729,-0.2693,-0.2693,-0.2717,-0.2734,-0.2733,-0.2694,-0.2695,-0.2695,-0.2695,0,0,0,0,0,0,0,-0.2605,-0.2614,-0.269,-0.2663,-0.2665,-0.2685,-0.2691,-0.2701,-0.271,-0.2712,-0.2712,-0.2721,-0.2693,-0.2716,-0.2715,-0.2732,-0.2694,-0.2695,-0.2695,-0.2695,-0.2797,-0.2799,0,0,0,0,0,0,-0.2593,-0.261,-0.2687,-0.2693,-0.2631,-0.2689,-0.2695,-0.2708,-0.2713,-0.2712,-0.2723,-0.272,-0.2717,-0.2715,-0.2714,-0.2735,-0.2695,-0.2695,-0.2695,-0.2794,-0.2797,-0.28,0,0,0,0,0,0,-0.259,-0.2599,-0.2684,-0.2652,-0.2664,-0.2692,-0.2707,-0.2711,-0.2728,-0.2722,-0.2719,-0.2733,-0.2715,-0.2713,-0.2733,-0.2733,-0.2695,-0.2695,-0.2791,-0.2795,-0.2799,-0.2795,0,0,0,0,0,0,-0.2587,-0.2598,-0.2604,-0.2652,-0.2666,-0.272,-0.2709,-0.2714,-0.2737,-0.2734,-0.273,-0.2725,-0.2713,-0.2733,-0.2734,-0.2733,-0.2696,-0.2788,-0.2793,-0.2798,-0.2792,-0.2798,-0.2804,0,0,0,0,0,-0.2583,-0.2604,-0.2604,-0.2614,-0.2673,-0.2721,-0.2731,-0.2744,-0.2739,-0.275,-0.276,-0.2725,-0.2763,-0.2736,-0.2736,-0.2735,-0.2786,-0.2792,-0.2797,-0.279,-0.2797,-0.2804,0,0,0,0,0,0,-0.2557,-0.2606,-0.2608,-0.2639,-0.2671,-0.2719,-0.2737,-0.2749,-0.2772,-0.277,-0.2756,-0.2753,-0.2773,-0.2773,-0.2743,-0.2787,-0.277,-0.2776,-0.2764,-0.2771,-0.2777,-0.2717,-0.2696,0,0,0,0,0,-0.2556,-0.2579,-0.2626,-0.2645,-0.2667,-0.2703,-0.2725,-0.2741,-0.2768,-0.2776,-0.2782,-0.2793,-0.2803,-0.2799,-0.2817,-0.2837,-0.2798,-0.2844,-0.2849,-0.2854,-0.2811,-0.2766,-0.2761,-0.2819,-0.2818,-0.2818,0,0,-0.2548,-0.2578,-0.2588,-0.264,-0.2669,-0.2698,-0.2711,-0.2753,-0.2765,-0.2768,-0.2793,-0.2816,-0.2819,-0.2843,-0.2851,-0.2834,-0.283,-0.2861,-0.2864,-0.2818,-0.2771,-0.2765,-0.2759,-0.2822,-0.2822,-0.2821,0,0,-0.254,-0.2574,-0.2589,-0.2624,-0.2674,-0.2703,-0.2713,-0.2773,-0.2785,-0.2827,-0.283,-0.2845,-0.2883,-0.2869,-0.2867,-0.2918,-0.2868,-0.2948,-0.2908,-0.2867,-0.286,-0.2852,-0.2828,-0.2818,-0.294,-0.294,-0.294,0,-0.2522,-0.2547,-0.26,-0.2627,-0.2644,-0.27,-0.2714,-0.2751,-0.2807,-0.2807,-0.2832,-0.287,-0.288,-0.2861,-0.2887,-0.2919,-0.2898,-0.2872,-0.2866,-0.2858,-0.285,-0.2826,-0.2815,-0.2941,-0.2941,-0.2941,-0.2941,0,-0.2526,-0.2547,-0.2564,-0.2606,-0.2639,-0.2668,-0.2721,-0.2754,-0.2786,-0.2809,-0.2826,-0.2858,-0.2861,-0.289,-0.2899,-0.2864,-0.2871,-0.288,-0.2828,-0.2843,-0.282,-0.2808,-0.2941,-0.2941,-0.2941,-0.2941,0,0,-0.2467,-0.2546,-0.2547,-0.2558,-0.2629,-0.2655,-0.2684,-0.271,-0.2715,-0.2771,-0.2759,-0.2794,-0.281,-0.2809,-0.2832,-0.28,-0.2758,-0.2816,-0.2814,-0.2754,-0.2674,-0.2635,-0.2619,-0.2763,-0.2761,-0.2759,-0.2689,0,-0.2437,-0.2469,-0.2518,-0.2537,-0.2556,-0.2613,-0.2633,-0.2669,-0.2708,-0.2727,-0.2736,-0.2755,-0.278,-0.2793,-0.2761,-0.2774,-0.2723,-0.2775,-0.2699,-0.2696,-0.2627,-0.2602,-0.2435,-0.2353,-0.2677,-0.2675,-0.2674,0,-0.2405,-0.2434,-0.2445,-0.2495,-0.2508,-0.2529,-0.2558,-0.2588,-0.2624,-0.2654,-0.2656,-0.2689,-0.2667,-0.2695,-0.2642,-0.2679,-0.2654,-0.2651,-0.2648,-0.2586,-0.2633,-0.2389,-0.232,-0.2654,-0.2656,-0.2657,-0.2659,0,-0.2318,-0.2372,-0.2371,-0.2392,-0.2466,-0.2469,-0.2503,-0.2551,-0.2575,-0.26,-0.2624,-0.2608,-0.2619,-0.2576,-0.259,-0.261,-0.253,-0.2559,-0.2482,-0.2482,-0.2305,-0.2292,-0.2461,-0.2461,-0.2462,-0.2462,-0.2462,0,-0.2257,-0.2256,-0.2332,-0.2337,-0.234,-0.2412,-0.242,-0.2458,-0.2508,-0.2524,-0.2574,-0.258,-0.2587,-0.257,-0.2555,-0.2486,-0.2493,-0.2438,-0.244,-0.231,-0.2298,-0.253,-0.2539,-0.2459,-0.246,-0.246,-0.2461,0,-0.2157,-0.2206,-0.2217,-0.2284,-0.2301,-0.2304,-0.2379,-0.239,-0.2455,-0.2475,-0.2483,-0.2545,-0.2525,-0.2524,-0.2474,-0.2442,-0.2387,-0.235,-0.2211,-0.2195,-0.2374,-0.2385,-0.224,-0.2238,-0.2236,-0.2234,-0.2233,0,-0.2107,-0.2102,-0.2164,-0.2169,-0.2196,-0.2225,-0.2245,-0.2336,-0.2359,-0.2448,-0.2443,-0.2461,-0.2445,-0.2382,-0.2323,-0.2248,-0.2316,-0.2049,-0.2035,-0.2324,-0.2341,-0.2355,-0.2368,-0.182,-0.1815,-0.1811,-0.1808,0,-0.2007,-0.2031,-0.2044,-0.2064,-0.2082,-0.2108,-0.2148,-0.2165,-0.2266,-0.2294,-0.2322,-0.2321,-0.2293,-0.2154,-0.2084,-0.2021,-0.2054,-0.1968,-0.2261,-0.1919,-0.1925,-0.1945,-0.1971,-0.1774,-0.1777,-0.178,-0.1782,-0.1783,-0.1919,-0.191,-0.1932,-0.1934,-0.1958,-0.1962,-0.1942,-0.2003,-0.2021,-0.2037,-0.2132,-0.208,-0.2066,-0.1879,-0.1782,-0.171,-0.1849,-0.1756,-0.1768,-0.1784,-0.1764,-0.1768,-0.1584,-0.1586,-0.1588,-0.159,-0.1592,0,-0.1802,-0.1802,-0.1802,-0.1803,-0.1775,-0.1834,-0.1848,-0.1807,-0.1779,-0.1833,-0.1834,-0.1656,-0.1574,-0.1569,-0.1414,-0.138,-0.1361,-0.1312,-0.1289,-0.1323,-0.1354,-0.1313,-0.1013,-0.1011,-0.101,-0.1008,0,0,-0.1738,-0.1692,-0.1694,-0.1608,-0.1608,-0.1531,-0.1506,-0.147,-0.1473,-0.141,-0.1392,-0.1511,-0.1542,-0.1286,-0.1217,-0.1096,-0.1196,-0.1037,-0.1503,-0.1511,-0.154,-0.1612,-0.1589,0,0,0,0,0]},{"header":{"parameterUnit":"m.s-1","parameterCategory":2,"la1":30.2991,"la2":30.254,"lo1":-89.0895,"lo2":-89.0444,"dy":0.0017,"dx":0.0017,"nx":28,"ny":28,"refTime":"2025-09-01T03:00:00:Z","depth":"2","parameterNumber":3,"parameterNumberName":"V-component_of_CURRENTS"},"data":[0,0,0,0,0,0,0,0,0,0,0,0,0,0,0,0,0,0,0,0,0,0,0,0,0,0,0,0,0,0,0,0,0,0,0,0,0,0,0,0,0,0,0,0,0,0,0,0,0,0,0,0,0,0,0,0,0,0,-0.0296,-0.0295,0,-0.0229,-0.0228,-0.0227,-0.0173,-0.0173,-0.0172,-0.0172,-0.0052,-0.0049,-0.0046,0,0,0,0,0,0,0,0,0,0,0,0,0,-0.0342,-0.0341,-0.0296,-0.0295,-0.0295,-0.0229,-0.0228,-0.0227,-0.0173,-0.0173,-0.0172,-0.0172,-0.0053,-0.0049,-0.0046,0,0,0,0,0,0,0,0,0,0,0,0,0,-0.0301,-0.0341,-0.0296,-0.0262,-0.0258,-0.023,-0.0228,-0.0227,-0.0173,-0.0173,-0.0172,-0.0172,-0.0054,-0.0049,-0.0045,-0.0029,0,0,-0.0032,-0.003,0,0,0,0,0,0,0,0,-0.0304,-0.0299,-0.0267,-0.0264,-0.026,-0.0211,-0.02,-0.0159,-0.0173,-0.0203,-0.0172,-0.0171,-0.0102,-0.0093,-0.0079,-0.0023,-0.0018,-0.0032,-0.0029,-0.0027,-0.0026,0,0,0,0,0,0,0,-0.0306,-0.0302,-0.0267,-0.0267,-0.0262,-0.0238,-0.0231,-0.0192,-0.0153,-0.02,-0.0197,-0.0193,-0.0099,-0.0084,-0.0076,-0.0016,-0.0032,-0.0028,-0.0025,-0.0023,0.0081,0.0082,0,0,0,0,0,0,-0.0322,-0.0304,-0.0269,-0.0265,-0.0284,-0.0238,-0.0231,-0.0225,-0.0155,-0.0145,-0.0194,-0.0191,-0.0091,-0.0081,-0.0072,-0.0039,-0.0027,-0.0023,-0.0021,0.0081,0.0081,0.0082,0,0,0,0,0,0,-0.0323,-0.0319,-0.0272,-0.0285,-0.0278,-0.0238,-0.0232,-0.0224,-0.0211,-0.0151,-0.0139,-0.0189,-0.0091,-0.0078,-0.0037,-0.0035,-0.0021,-0.0017,0.0081,0.0081,0.0082,0.002,0,0,0,0,0,0,-0.0325,-0.032,-0.0326,-0.0286,-0.0278,-0.0265,-0.0233,-0.0223,-0.021,-0.0206,-0.0143,-0.0131,-0.0089,-0.0044,-0.0033,-0.0028,-0.0014,0.0081,0.0081,0.0082,0.0021,0.0018,0.0015,0,0,0,0,0,-0.0326,-0.034,-0.0327,-0.0323,-0.0286,-0.0266,-0.0259,-0.0227,-0.0211,-0.0211,-0.0163,-0.0133,-0.0033,-0.004,-0.0027,-0.0022,0.0081,0.0081,0.0081,0.0023,0.0018,0.0015,0,0,0,0,0,0,-0.0367,-0.0335,-0.032,-0.0324,-0.0301,-0.0258,-0.0259,-0.0234,-0.0197,-0.0191,-0.0131,-0.0116,-0.008,-0.0043,-0.0052,0.001,0.0029,0.0032,-0.002,-0.0023,-0.0027,-0.004,-0.001,0,0,0,0,0,-0.0379,-0.038,-0.0344,-0.035,-0.034,-0.0301,-0.029,-0.0266,-0.0228,-0.0212,-0.0165,-0.0113,-0.0068,-0.0041,0.0001,0.0034,0.007,0.0047,0.0044,0.0041,0.0039,0.0088,0.0088,0.0083,0.0083,0.0083,0,0,-0.0399,-0.0382,-0.0383,-0.0359,-0.0338,-0.033,-0.0292,-0.0282,-0.0269,-0.0204,-0.0173,-0.0127,-0.0064,-0.0026,-0.0006,0.0006,0.0062,0.0041,0.0038,0.0039,0.0088,0.0088,0.0089,0.0083,0.0083,0.0083,0,0,-0.0442,-0.0422,-0.0436,-0.0417,-0.0391,-0.0362,-0.0362,-0.0319,-0.0293,-0.0261,-0.0208,-0.016,-0.0097,-0.0045,-0.0012,-0.0008,0.0038,0.0004,-0.0018,0.0028,0.0029,0.0029,0.0075,0.008,0.0007,0.0006,0.0006,0,-0.0469,-0.0474,-0.0439,-0.0443,-0.043,-0.038,-0.0385,-0.0353,-0.0301,-0.0276,-0.0261,-0.0155,-0.0103,-0.0044,-0.0041,-0.0015,0.0014,-0.0011,0.0022,0.0024,0.0026,0.0072,0.0079,0.0003,0.0004,0.0004,0.0004,0,-0.0515,-0.0515,-0.0522,-0.0505,-0.0488,-0.0485,-0.0435,-0.0411,-0.0373,-0.0331,-0.0272,-0.02,-0.0134,-0.011,-0.0072,-0.0028,-0.001,0.0006,0.0028,0.0022,0.0072,0.008,-0.0001,0.0,0.0001,0.0002,0,0,-0.0576,-0.056,-0.056,-0.0558,-0.0516,-0.0507,-0.0482,-0.044,-0.0418,-0.0359,-0.0322,-0.0239,-0.0194,-0.0153,-0.0096,-0.0051,-0.0007,-0.0022,-0.0018,0.0014,0.0092,0.0126,0.0138,0.0009,0.001,0.0011,0.012,0,-0.062,-0.0645,-0.0616,-0.0627,-0.0629,-0.0569,-0.055,-0.0501,-0.0447,-0.0398,-0.0311,-0.0257,-0.0211,-0.0179,-0.0127,-0.0036,0.0011,-0.0039,0.01,0.0105,0.0128,0.0148,0.0123,0.0219,0.0128,0.0129,0.013,0,-0.0667,-0.0675,-0.0701,-0.0678,-0.0673,-0.0669,-0.0617,-0.0592,-0.0505,-0.0461,-0.0387,-0.0316,-0.0227,-0.0197,-0.005,-0.0087,-0.0006,0.0061,0.0068,0.0127,0.0154,0.0212,0.0238,0.0145,0.0144,0.0143,0.0142,0,-0.0722,-0.0726,-0.0749,-0.0742,-0.0713,-0.0707,-0.0686,-0.0615,-0.0588,-0.0498,-0.0464,-0.0352,-0.0291,-0.018,-0.0032,-0.0043,0.0125,0.0131,0.024,0.0244,0.0265,0.0269,0.0228,0.0228,0.0228,0.0228,0.0227,0,-0.0769,-0.0783,-0.078,-0.0791,-0.0811,-0.0765,-0.0762,-0.0719,-0.0653,-0.0621,-0.0505,-0.0448,-0.0287,-0.0165,-0.0041,0.0132,0.0124,0.0245,0.0278,0.0244,0.0244,0.0212,0.0208,0.0232,0.0231,0.023,0.0229,0,-0.0818,-0.0816,-0.0843,-0.0838,-0.084,-0.0853,-0.0828,-0.0817,-0.0746,-0.0699,-0.0673,-0.0518,-0.0353,-0.0179,0.0017,0.0123,0.0283,0.0345,0.0296,0.0322,0.037,0.0363,0.0474,0.0476,0.0478,0.0479,0.0481,0,-0.0843,-0.0865,-0.0892,-0.0916,-0.0918,-0.0929,-0.0933,-0.0876,-0.0855,-0.0735,-0.0714,-0.0544,-0.0404,-0.0094,0.012,0.0352,0.0345,0.0455,0.0434,0.0376,0.0397,0.0387,0.0377,0.0439,0.044,0.0441,0.0441,0,-0.0885,-0.0899,-0.0923,-0.0984,-0.1008,-0.1025,-0.1022,-0.1023,-0.0943,-0.0877,-0.0756,-0.0633,-0.0326,-0.0064,0.0234,0.0364,0.0415,0.0477,0.0444,0.0376,0.0352,0.0369,0.0359,0.0447,0.0447,0.0446,0.0446,0.0446,-0.0912,-0.0948,-0.099,-0.1041,-0.1076,-0.1106,-0.1113,-0.1088,-0.1046,-0.0927,-0.0805,-0.0591,-0.0335,0.0097,0.031,0.0505,0.0499,0.0544,0.0539,0.0533,0.0505,0.0485,0.0601,0.0601,0.0601,0.0601,0.0602,0,-0.0938,-0.0981,-0.1041,-0.1099,-0.1146,-0.1148,-0.1155,-0.113,-0.1077,-0.094,-0.0792,-0.0492,-0.0183,0.0082,0.0398,0.0585,0.0562,0.0608,0.0539,0.0533,0.0527,0.0495,0.059,0.059,0.0591,0.0591,0,0,-0.0952,-0.1015,-0.105,-0.1136,-0.1179,-0.1209,-0.1209,-0.1152,-0.1049,-0.0903,-0.0737,-0.0508,-0.0175,0.0042,0.028,0.0444,0.0435,0.0457,0.0449,0.0333,0.0325,0.0477,0.042,0,0,0,0,0]}],[{"header":{"parameterUnit":"m.s-1","parameterCategory":2,"la1":30.2991,"la2":30.254,"lo1":-89.0895,"lo2":-89.0444,"dy":0.0017,"dx":0.0017,"nx":28,"ny":28,"refTime":"2025-09-01T03:00:00:Z","depth":"4","parameterNumber":2,"parameterNumberName":"U-component_of_CURRENTS"},"data":[0,0,0,0,0,0,0,0,0,0,0,0,0,0,0,0,0,0,0,0,0,0,0,0,0,0,0,0,0,0,0,0,0,0,0,0,0,0,0,0,0,0,0,0,0,0,0,0,0,0,0,0,0,0,0,0,0,0,-0.1696,-0.1696,0,-0.1693,-0.1693,-0.1693,-0.1719,-0.172,-0.172,-0.1721,-0.1782,-0.1783,-0.1785,0,0,0,0,0,0,0,0,0,0,0,0,0,-0.1698,-0.1699,-0.1696,-0.1696,-0.1696,-0.1693,-0.1693,-0.1693,-0.1719,-0.172,-0.172,-0.1721,-0.1782,-0.1783,-0.1785,0,0,0,0,0,0,0,0,0,0,0,0,0,-0.1699,-0.1699,-0.1696,-0.1707,-0.1707,-0.1693,-0.1693,-0.1693,-0.1719,-0.172,-0.1721,-0.1721,-0.1781,-0.1783,-0.1785,-0.1781,0,0,-0.179,-0.1791,0,0,0,0,0,0,0,0,-0.1699,-0.1699,-0.1705,-0.1706,-0.1707,-0.1705,-0.1716,-0.1725,-0.1719,-0.1717,-0.1721,-0.1722,-0.176,-0.1764,-0.1764,-0.1783,-0.1786,-0.179,-0.1791,-0.1792,-0.1793,0,0,0,0,0,0,0,-0.1699,-0.1699,-0.1698,-0.1705,-0.1706,-0.1702,-0.1703,-0.1718,-0.1738,-0.1717,-0.1719,-0.1714,-0.1762,-0.1762,-0.1766,-0.1787,-0.179,-0.1792,-0.1793,-0.1794,-0.1885,-0.1886,0,0,0,0,0,0,-0.1695,-0.1699,-0.1698,-0.1697,-0.1702,-0.1701,-0.1703,-0.1707,-0.1736,-0.174,-0.1713,-0.1715,-0.1759,-0.1764,-0.1768,-0.1835,-0.1792,-0.1794,-0.1795,-0.1883,-0.1885,-0.1887,0,0,0,0,0,0,-0.1695,-0.1695,-0.1698,-0.1696,-0.1695,-0.17,-0.1704,-0.1706,-0.1737,-0.1732,-0.1738,-0.1745,-0.176,-0.1766,-0.1811,-0.1835,-0.1795,-0.1796,-0.1882,-0.1884,-0.1886,-0.1924,0,0,0,0,0,0,-0.1695,-0.1695,-0.172,-0.1696,-0.1695,-0.171,-0.1704,-0.1706,-0.1729,-0.1733,-0.1761,-0.1765,-0.1761,-0.1809,-0.1813,-0.1837,-0.1798,-0.188,-0.1883,-0.1885,-0.1921,-0.1927,-0.1933,0,0,0,0,0,-0.1696,-0.1722,-0.1721,-0.1722,-0.1721,-0.1711,-0.1711,-0.1718,-0.1731,-0.1749,-0.1772,-0.1766,-0.1828,-0.1812,-0.1816,-0.1841,-0.1879,-0.1882,-0.1885,-0.1919,-0.1926,-0.1933,0,0,0,0,0,0,-0.1728,-0.1726,-0.1725,-0.1748,-0.1738,-0.1715,-0.174,-0.1736,-0.1767,-0.1787,-0.1785,-0.1791,-0.184,-0.1838,-0.182,-0.1876,-0.1852,-0.1856,-0.1876,-0.1883,-0.1889,-0.1892,-0.1799,0,0,0,0,0,-0.1745,-0.1771,-0.1751,-0.1769,-0.1775,-0.1763,-0.1769,-0.1769,-0.1778,-0.1793,-0.1808,-0.183,-0.185,-0.1867,-0.1885,-0.1916,-0.1901,-0.1935,-0.1941,-0.1945,-0.1953,-0.195,-0.1956,-0.1897,-0.1897,-0.1897,0,0,-0.1756,-0.1762,-0.1774,-0.1779,-0.1779,-0.1791,-0.1771,-0.1789,-0.1805,-0.1796,-0.1848,-0.1857,-0.1865,-0.1901,-0.1921,-0.1906,-0.1954,-0.1949,-0.1953,-0.1958,-0.1954,-0.196,-0.1965,-0.1899,-0.1898,-0.1898,0,0,-0.1773,-0.1804,-0.1824,-0.1832,-0.1839,-0.1835,-0.1847,-0.1845,-0.1862,-0.1897,-0.1896,-0.1918,-0.1956,-0.1953,-0.1958,-0.2007,-0.1988,-0.2021,-0.205,-0.2047,-0.2052,-0.2055,-0.2035,-0.2037,-0.2019,-0.202,-0.202,0,-0.1785,-0.1805,-0.1825,-0.1846,-0.1855,-0.1861,-0.1873,-0.1893,-0.1906,-0.1918,-0.1928,-0.1972,-0.1976,-0.2,-0.2017,-0.2018,-0.2013,-0.202,-0.2053,-0.2057,-0.206,-0.2038,-0.204,-0.2022,-0.2022,-0.2021,-0.2021,0,-0.1798,-0.1833,-0.1849,-0.1881,-0.1902,-0.1915,-0.1935,-0.1967,-0.1991,-0.1994,-0.2038,-0.2042,-0.2058,-0.2065,-0.2059,-0.2085,-0.2072,-0.2062,-0.2031,-0.2068,-0.2043,-0.2044,-0.2025,-0.2024,-0.2024,-0.2023,0,0,-0.1756,-0.184,-0.1846,-0.1868,-0.1921,-0.1925,-0.1984,-0.2005,-0.2033,-0.2069,-0.2091,-0.2124,-0.2123,-0.2129,-0.212,-0.2121,-0.2129,-0.2109,-0.2107,-0.2081,-0.212,-0.1989,-0.1976,-0.2131,-0.2131,-0.2132,-0.2089,0,-0.1745,-0.1791,-0.184,-0.1883,-0.1903,-0.1954,-0.1998,-0.2036,-0.207,-0.2103,-0.2121,-0.2146,-0.2149,-0.2153,-0.2161,-0.214,-0.2135,-0.2141,-0.2096,-0.2094,-0.1967,-0.1974,-0.2134,-0.209,-0.209,-0.209,-0.209,0,-0.1717,-0.1758,-0.18,-0.1877,-0.1892,-0.1931,-0.1994,-0.2033,-0.2095,-0.2124,-0.2164,-0.2179,-0.2198,-0.2188,-0.2184,-0.2193,-0.2165,-0.2146,-0.2143,-0.2009,-0.1964,-0.2049,-0.2091,-0.2091,-0.209,-0.209,-0.209,0,-0.164,-0.172,-0.1755,-0.1781,-0.1875,-0.1913,-0.1962,-0.2035,-0.2068,-0.2134,-0.2159,-0.2197,-0.2204,-0.2202,-0.2177,-0.2185,-0.2158,-0.2152,-0.2007,-0.1997,-0.2111,-0.2107,-0.2141,-0.2141,-0.2141,-0.2141,-0.2141,0,-0.1582,-0.1614,-0.1729,-0.1747,-0.1792,-0.1876,-0.1927,-0.1984,-0.206,-0.2085,-0.2161,-0.2171,-0.2212,-0.2205,-0.2183,-0.209,-0.2159,-0.2007,-0.1976,-0.2127,-0.2127,-0.211,-0.2107,-0.2139,-0.214,-0.214,-0.214,0,-0.1487,-0.1562,-0.1611,-0.1723,-0.1758,-0.1792,-0.1906,-0.1934,-0.2025,-0.206,-0.2081,-0.2153,-0.2138,-0.2153,-0.2127,-0.2065,-0.2005,-0.1953,-0.2106,-0.2085,-0.1846,-0.1846,-0.1781,-0.1776,-0.1772,-0.1769,-0.1766,0,-0.1439,-0.1456,-0.1579,-0.1609,-0.1665,-0.1737,-0.1779,-0.1895,-0.1922,-0.2024,-0.2017,-0.205,-0.2076,-0.1933,-0.1974,-0.191,-0.189,-0.1846,-0.1856,-0.1832,-0.1809,-0.1816,-0.1821,-0.1759,-0.1758,-0.1757,-0.1756,0,-0.1347,-0.1407,-0.145,-0.1515,-0.1572,-0.1623,-0.1693,-0.17,-0.1813,-0.1918,-0.189,-0.1874,-0.185,-0.1831,-0.1789,-0.1752,-0.1872,-0.1802,-0.1811,-0.182,-0.1804,-0.1787,-0.1797,-0.1741,-0.1743,-0.1744,-0.1745,0,-0.1279,-0.1291,-0.1359,-0.1397,-0.1464,-0.1476,-0.1536,-0.1562,-0.1606,-0.1724,-0.1707,-0.1753,-0.1823,-0.1746,-0.1714,-0.1661,-0.1638,-0.1585,-0.1605,-0.1621,-0.159,-0.1548,-0.1371,0,0,0,0,0,-0.1204,-0.1201,-0.1232,-0.127,-0.1331,-0.1366,-0.1458,-0.1522,-0.1634,-0.1564,-0.1631,-0.1602,-0.156,-0.1592,-0.15,-0.1641,-0.1645,-0.1529,-0.1596,-0.1659,-0.1676,-0.1655,0,0,0,0,0,0,-0.1153,-0.118,-0.1187,-0.1149,-0.1148,-0.12,-0.1249,-0.1332,-0.1305,-0.1424,-0.1405,-0.1498,-0.1477,-0.1574,-0.1463,-0.147,-0.1477,-0.1569,-0.1564,-0.165,-0.1665,-0.1679,-0.1663,0,0,0,0,0]},{"header":{"parameterUnit":"m.s-1","parameterCategory":2,"la1":30.2991,"la2":30.254,"lo1":-89.0895,"lo2":-89.0444,"dy":0.0017,"dx":0.0017,"nx":28,"ny":28,"refTime":"2025-09-01T03:00:00:Z","depth":"4","parameterNumber":3,"parameterNumberName":"V-component_of_CURRENTS"},"data":[0,0,0,0,0,0,0,0,0,0,0,0,0,0,0,0,0,0,0,0,0,0,0,0,0,0,0,0,0,0,0,0,0,0,0,0,0,0,0,0,0,0,0,0,0,0,0,0,0,0,0,0,0,0,0,0,0,0,-0.025,-0.025,0,-0.0231,-0.0231,-0.023,-0.0199,-0.0199,-0.0198,-0.0198,-0.013,-0.0129,-0.0128,0,0,0,0,0,0,0,0,0,0,0,0,0,-0.0257,-0.0257,-0.025,-0.025,-0.025,-0.0231,-0.0231,-0.023,-0.0199,-0.0199,-0.0198,-0.0198,-0.0131,-0.0129,-0.0127,0,0,0,0,0,0,0,0,0,0,0,0,0,-0.0246,-0.0257,-0.025,-0.0233,-0.0232,-0.0231,-0.0231,-0.023,-0.0199,-0.0199,-0.0198,-0.0197,-0.0131,-0.0129,-0.0127,-0.0128,0,0,-0.0121,-0.012,0,0,0,0,0,0,0,0,-0.0247,-0.0246,-0.0236,-0.0235,-0.0233,-0.0218,-0.0208,-0.0194,-0.02,-0.021,-0.0198,-0.0197,-0.0156,-0.0152,-0.0149,-0.0124,-0.0121,-0.0121,-0.0119,-0.0118,-0.0118,0,0,0,0,0,0,0,-0.0248,-0.0246,-0.0241,-0.0236,-0.0234,-0.0225,-0.0223,-0.0205,-0.0185,-0.0209,-0.0207,-0.0208,-0.0155,-0.0151,-0.0147,-0.012,-0.0121,-0.0119,-0.0118,-0.0117,-0.0107,-0.0108,0,0,0,0,0,0,-0.0254,-0.0247,-0.0242,-0.0241,-0.024,-0.0226,-0.0223,-0.0222,-0.0187,-0.0181,-0.0208,-0.0206,-0.0155,-0.0149,-0.0144,-0.0141,-0.0118,-0.0117,-0.0115,-0.0106,-0.0107,-0.0108,0,0,0,0,0,0,-0.0254,-0.0253,-0.0243,-0.0245,-0.0243,-0.0227,-0.0226,-0.0222,-0.022,-0.0186,-0.018,-0.0209,-0.0154,-0.0147,-0.0135,-0.0138,-0.0116,-0.0114,-0.0105,-0.0106,-0.0108,-0.0136,0,0,0,0,0,0,-0.0254,-0.0253,-0.0262,-0.0245,-0.0243,-0.025,-0.0227,-0.0222,-0.0221,-0.0218,-0.0185,-0.0178,-0.0153,-0.0139,-0.0133,-0.0135,-0.0112,-0.0104,-0.0106,-0.0107,-0.0134,-0.0138,-0.0142,0,0,0,0,0,-0.0254,-0.0268,-0.0262,-0.0262,-0.0252,-0.0251,-0.0249,-0.0234,-0.0222,-0.0228,-0.0205,-0.0179,-0.0147,-0.0138,-0.0131,-0.0132,-0.0103,-0.0105,-0.0107,-0.0132,-0.0137,-0.0142,0,0,0,0,0,0,-0.0277,-0.0266,-0.0259,-0.0269,-0.0264,-0.0246,-0.0253,-0.024,-0.0227,-0.0224,-0.0188,-0.018,-0.0174,-0.0155,-0.0146,-0.0139,-0.0122,-0.0123,-0.0143,-0.0148,-0.0152,-0.0135,-0.011,0,0,0,0,0,-0.0286,-0.0294,-0.0279,-0.0291,-0.0288,-0.0271,-0.0271,-0.026,-0.0245,-0.0238,-0.0215,-0.0194,-0.0179,-0.0165,-0.0153,-0.0144,-0.0102,-0.0144,-0.0148,-0.0151,-0.0135,-0.0076,-0.0072,-0.0116,-0.0116,-0.0116,0,0,-0.0301,-0.0296,-0.0301,-0.0297,-0.029,-0.0292,-0.0269,-0.0272,-0.0269,-0.0233,-0.0225,-0.021,-0.0183,-0.0176,-0.0171,-0.0157,-0.0123,-0.0154,-0.0157,-0.0138,-0.0077,-0.0073,-0.0068,-0.0117,-0.0117,-0.0117,0,0,-0.0334,-0.0326,-0.0342,-0.0336,-0.033,-0.0317,-0.0319,-0.0303,-0.0292,-0.0288,-0.0261,-0.024,-0.0227,-0.0195,-0.0181,-0.02,-0.0152,-0.0211,-0.0205,-0.0148,-0.0143,-0.0138,-0.0096,-0.0086,-0.0205,-0.0205,-0.0205,0,-0.0353,-0.0364,-0.0348,-0.0356,-0.0354,-0.0329,-0.0339,-0.0325,-0.0308,-0.0292,-0.0292,-0.0249,-0.0229,-0.0195,-0.0204,-0.0205,-0.0172,-0.0185,-0.015,-0.0144,-0.0138,-0.0096,-0.0085,-0.0207,-0.0206,-0.0206,-0.0206,0,-0.039,-0.0398,-0.0406,-0.0404,-0.04,-0.0406,-0.038,-0.0372,-0.0357,-0.0333,-0.0306,-0.0274,-0.0241,-0.0241,-0.0226,-0.0182,-0.0174,-0.0166,-0.013,-0.0135,-0.0091,-0.0079,-0.0209,-0.0208,-0.0208,-0.0208,0,0,-0.0429,-0.0433,-0.0435,-0.0439,-0.0422,-0.0423,-0.0412,-0.039,-0.0374,-0.0349,-0.032,-0.0289,-0.0258,-0.024,-0.0215,-0.0163,-0.0105,-0.0149,-0.0146,-0.0094,0.0013,-0.0007,0.0004,-0.009,-0.0087,-0.0086,0.0023,0,-0.0462,-0.0492,-0.0478,-0.0496,-0.0503,-0.0469,-0.0462,-0.0433,-0.0403,-0.0369,-0.0311,-0.0285,-0.0262,-0.0249,-0.019,-0.0133,-0.0073,-0.0135,-0.0,0.0004,-0.0002,0.0018,-0.0079,0.0032,0.0034,0.0036,0.0038,0,-0.0496,-0.051,-0.0539,-0.0534,-0.0533,-0.054,-0.0508,-0.0498,-0.0434,-0.0407,-0.0347,-0.0303,-0.0227,-0.0213,-0.0077,-0.012,-0.005,0.0002,0.0008,0.0015,0.0006,0.004,0.006,0.0058,0.0056,0.0055,0.0053,0,-0.0526,-0.0545,-0.0572,-0.0571,-0.0565,-0.0568,-0.0561,-0.0512,-0.0497,-0.0426,-0.0401,-0.0301,-0.0261,-0.015,-0.0045,-0.0057,0.0106,0.0102,0.0159,0.0158,0.0158,0.0151,0.0219,0.0219,0.0219,0.0219,0.0218,0,-0.0552,-0.0572,-0.0594,-0.0607,-0.0634,-0.061,-0.0616,-0.0587,-0.0541,-0.0518,-0.0426,-0.0381,-0.0242,-0.0137,-0.0035,0.0096,0.012,0.0176,0.0193,0.0137,0.0128,0.0165,0.0158,0.0223,0.0222,0.0221,0.022,0,-0.0573,-0.0589,-0.0623,-0.0641,-0.0652,-0.067,-0.0671,-0.0665,-0.0616,-0.058,-0.0559,-0.0435,-0.0299,-0.0154,0.0022,0.0094,0.0227,0.0271,0.0199,0.0208,0.024,0.0229,0.0349,0.0349,0.035,0.035,0.035,0,-0.0583,-0.0607,-0.0659,-0.0689,-0.0704,-0.0729,-0.0743,-0.0711,-0.0696,-0.0611,-0.059,-0.0457,-0.0362,-0.0116,0.0025,0.0233,0.0256,0.0321,0.0291,0.0253,0.0258,0.0247,0.0236,0.0351,0.0351,0.0351,0.0351,0,-0.0599,-0.0628,-0.0658,-0.0729,-0.0766,-0.0793,-0.0806,-0.0802,-0.0751,-0.0712,-0.0596,-0.0458,-0.0304,-0.0119,0.0042,0.0188,0.0274,0.0325,0.0325,0.0297,0.0257,0.0259,0.0248,0.0352,0.0352,0.0352,0.0352,0,-0.0611,-0.0643,-0.0697,-0.075,-0.0806,-0.0835,-0.084,-0.0807,-0.0781,-0.068,-0.0647,-0.0464,-0.0358,-0.0141,0.0007,0.0147,0.0177,0.0211,0.0217,0.0218,0.0139,0.0065,0.0133,0,0,0,0,0,-0.0613,-0.0652,-0.0711,-0.077,-0.0828,-0.0854,-0.0868,-0.0858,-0.0816,-0.0739,-0.0686,-0.0533,-0.0296,-0.0186,-0.0047,-0.0005,0.0183,0.0158,0.0221,0.0358,0.0357,0.0284,0,0,0,0,0,0,-0.0616,-0.0675,-0.0707,-0.0772,-0.0816,-0.0866,-0.0877,-0.0852,-0.0792,-0.0733,-0.0599,-0.0515,-0.028,-0.0374,-0.0048,-0.0006,0.0048,0.0277,0.028,0.0359,0.0358,0.0357,0.0282,0,0,0,0,0]}]]